Regional Weather Roundup
Issued by NWS

Home | Current Version | Previous Version | Graphics & Text | Print | Product List | Glossary On
Versions: 1 2 3 4 5 6 7 8 9 10 11 12 13 14 15 16 17 18 19 20 21 22 23 24 25 26 27 28 29 30 31 32 33 34 35 36 37 38 39 40 41 42 43 44 45 46 47 48 49 50
000
ASUS44 KMEG 260510
RWRTN
TENNESSEE HOURLY STATE WEATHER ROUNDUP
NATIONAL WEATHER SERVICE MEMPHIS TN
1200 AM CDT MON SEP 26 2016

TNZ002-004-019-021-049-052-054-088>092-260600-
WEST TENNESSEE

CITY           SKY/WX    TMP DP  RH WIND       PRES   REMARKS
MEMPHIS INTL   PTCLDY    79  68  69 S3        30.01F
NWS MEMPHIS      N/A     74 N/A N/A MISG        N/A
JACKSON          N/A    N/A N/A N/A MISG      30.01F
DYERSBURG      CLEAR    N/A N/A N/A MISG      30.00F
UNION CITY     CLEAR     72  72 100 CALM      30.00F
PARIS          CLEAR     66  64  94 CALM      30.03S
HUNTINGDON       N/A     72  68  88 CALM      30.00F
LEXINGTON      CLEAR     68  68 100 CALM      30.02F
$$

TNZ008-025-027-028-033-062-065-066-260600-
NORTH MIDDLE TENNESSEE

CITY           SKY/WX    TMP DP  RH WIND       PRES   REMARKS
NASHVILLE      CLEAR     73  66  78 CALM      30.03S
PORTLAND       CLEAR     68  66  94 CALM      30.04S
CLARKSVILLE    CLEAR     68  65  90 CALM      30.02F
SMYRNA         CLEAR     68  65  90 CALM      30.03F
COOKEVILLE     CLEAR     66  66 100 CALM      30.05S
GALLATIN       CLEAR     68  66  94 CALM      30.05F
CROSSVILLE     MOCLDY    66  64  93 CALM      30.12R
$$

TNZ061-075-076-078-094-096-097-260600-
SOUTH MIDDLE TENNESSEE

CITY           SKY/WX    TMP DP  RH WIND       PRES   REMARKS
FAYETTEVILLE   CLOUDY    73  64  73 S9G15     30.06R
TULLAHOMA      PTCLDY    73  64  73 CALM      30.06F
WINCHESTER     CLEAR     70  66  88 CALM      30.05F
MCMINNVILLE    CLEAR     70  70 100 CALM      30.05F
COLUMBIA       CLEAR    N/A N/A N/A CALM      30.03S
SHELBYVILLE    PTCLDY    72  66  83 CALM      30.05S
$$

TNZ017-018-042-046-047-260600-
NORTHEAST TENNESSEE

CITY           SKY/WX    TMP DP  RH WIND       PRES   REMARKS
TRI CITIES     CLEAR     68  63  84 CALM      30.10S
ELIZABETHTON     N/A     70  63  78 E3        30.11S
$$

TNZ012-013-036-069-073-074-260600-
CENTRAL EAST TENNESSEE

CITY           SKY/WX    TMP DP  RH WIND       PRES   REMARKS
KNOXVILLE      CLEAR     72  63  73 SW7       30.05R
OAK RIDGE      CLEAR     72  66  81 CALM      30.07R
DOWNTOWN KNOXV CLEAR     68  68 100 CALM      30.05R
GATLINBURG     CLEAR     68  63  83 CALM      30.05S
MORRISTOWN     CLEAR     72  63  73 CALM      30.06S
JACKSBORO      PTCLDY    66  66 100 CALM      30.10S
$$

TNZ083-085-099-260600-
SOUTHEAST TENNESSEE

CITY           SKY/WX    TMP DP  RH WIND       PRES   REMARKS
CHATTANOOGA    MOCLDY    78  64  61 CALM      30.05R
$$

SKY/WX REPORTED AS FAIR MEANS FEW OR NO CLOUDS BELOW
12 THOUSAND FEET.




USA.gov is the U.S. government's official web portal to all federal, state and local government web resources and services.